Change the Weather History Date:

Friday, December 30, 2011

  Actual Average Record
Temperature  
Mean Temperature 44 °F -  
Max Temperature 53 °F 41 °F 58 °F (1980)
Min Temperature 34 °F 24 °F 6 °F (1990)
Degree Days  
Heating Degree Days 22    
Moisture  
Dew Point 27 °F    
Average Humidity 56    
Maximum Humidity 73    
Minimum Humidity 37    
Precipitation  
Precipitation 0.00 in - - ()
Sea Level Pressure  
Sea Level Pressure 30.10 in    
Wind  
Wind Speed 2 mph (SE)    
Max Wind Speed 7 mph    
Max Gust Speed -    
Visibility 9 miles    
Events      
Averages and records for this station are not official NWS values.
T = Trace of Precipitation, MM = Missing Value Source: NWS Daily Summary

Daily Weather History Graph

Daily Weather History Graph

Search for Another Location

Airport or City:

Trip Planner

Search our weather history database for the weather conditions in past years. The results will help you decide how hot, cold, wet, or windy it might be!

Date:

Astronomy

Dec. 30, 2011 Rise Set
Actual Time 7:38 AM MST 5:18 PM MST
Civil Twilight 7:09 AM MST 5:47 PM MST
Nautical Twilight 6:37 AM MST 6:19 PM MST
Astronomical Twilight 6:05 AM MST 6:51 PM MST
Moon 11:08 AM MST (12/30) 11:46 PM MST (12/30)
Length of Visible Light 10h 37m
Length of Day
9h 39m
Waxing Crescent, 36% of the Moon is Illuminated
Dec 30
Waxing Crescent
Dec 31
First Quarter
Jan 9
Full
Jan 16
Last Quarter
Jan 23
New

Hourly Weather History & Observations

Time (MST) Temp. Windchill Dew Point Humidity Pressure Visibility Wind Dir Wind Speed Gust Speed Precip Events Conditions
12:53 AM 37.9 °F - 25.0 °F 60% 30.15 in 8.0 mi Calm Calm - N/A   Clear
1:53 AM 39.9 °F 37.8 °F 25.0 °F 55% 30.14 in 10.0 mi South 3.5 mph - N/A   Clear
2:53 AM 39.0 °F 35.7 °F 25.0 °F 57% 30.14 in 10.0 mi NNW 4.6 mph - N/A   Clear
3:53 AM 37.0 °F - 28.0 °F 70% 30.15 in 10.0 mi Calm Calm - N/A   Clear
4:53 AM 35.1 °F 31.0 °F 26.1 °F 70% 30.14 in 10.0 mi South 4.6 mph - N/A   Clear
5:53 AM 34.0 °F - 26.1 °F 73% 30.17 in 10.0 mi Calm Calm - N/A   Clear
6:53 AM 35.1 °F 31.0 °F 26.1 °F 70% 30.18 in 10.0 mi SW 4.6 mph - N/A   Clear
7:53 AM 35.1 °F - 25.0 °F 67% 30.19 in 7.0 mi Calm Calm - N/A   Clear
8:53 AM 41.0 °F - 26.6 °F 57% 30.20 in 10.0 mi Calm Calm - N/A   Clear
9:53 AM 43.0 °F - 27.0 °F 53% 30.20 in 10.0 mi Calm Calm - N/A   Clear
10:53 AM 45.0 °F - 28.0 °F 52% 30.19 in 10.0 mi Calm Calm - N/A   Clear
11:53 AM 46.9 °F - 26.1 °F 44% 30.15 in 10.0 mi Calm Calm - N/A   Clear
12:53 PM 48.9 °F - 27.0 °F 43% 30.10 in 10.0 mi East 3.5 mph - N/A   Clear
1:53 PM 50.0 °F - 27.0 °F 41% 30.07 in 10.0 mi Calm Calm - N/A   Clear
2:53 PM 53.1 °F - 27.0 °F 37% 30.04 in 10.0 mi East 4.6 mph - N/A   Clear
3:53 PM 52.0 °F - 28.0 °F 40% 30.03 in 10.0 mi NNE 4.6 mph - N/A   Clear
4:53 PM 48.9 °F - 28.9 °F 46% 30.04 in 10.0 mi NE 3.5 mph - N/A   Clear
5:53 PM 45.0 °F 43.5 °F 28.9 °F 53% 30.03 in 10.0 mi SSE 3.5 mph - N/A   Clear
6:53 PM 44.1 °F - 28.9 °F 55% 30.03 in 3.0 mi Calm Calm - N/A   Haze
7:53 PM 44.1 °F - 28.9 °F 55% 30.03 in 7.0 mi Calm Calm - N/A   Clear
8:53 PM 43.0 °F 41.3 °F 28.9 °F 58% 30.03 in 7.0 mi West 3.5 mph - N/A   Clear
9:53 PM 41.0 °F 36.4 °F 28.9 °F 62% 30.02 in 10.0 mi SSE 6.9 mph - N/A   Clear
10:53 PM 42.1 °F - 28.9 °F 60% 30.02 in 10.0 mi Calm Calm - N/A   Clear
11:53 PM 39.9 °F - 28.0 °F 63% 30.03 in 5.0 mi Calm Calm - N/A   Haze